Export;EXP-2023-01 (20230707 06:57);;;StationsCode;NL01487;NL01488;NL01491;NL01493;NL10633;NL10644;NL10741;NL10742;NL10934;NL49007;NL49012;NL49014;NL49551;NL49553;NL49561
Periode;20120101 00:00 - 20130101 00:00;;;BeheerderMeetStation;DCMR;DCMR;DCMR;DCMR;RIVM;RIVM;RIVM;RIVM;RIVM;GGD A'dam;GGD A'dam;GGD A'dam;GGD A'dam;GGD A'dam;GGD A'dam
Bron;https://data.rivm.nl/data/luchtmeetnet;;;StationsNaam;Rotterdam Zuid-Pleinweg;Rotterdam Zuid-Zwartewaalstraat;Rotterdam-Oost Sidelinge A13;Rotterdam Noord -Statenweg;Zegveld-Oude Meije;Cabauw-Wielsekade;Nijmegen-Graafseweg;Nijmegen-Ruyterstraat;Kollumerwaard-Hooge Zuidwal;Amsterdam-Einsteinweg;Amsterdam-Van Diemenstraat;Amsterdam-Vondelpark;IJmuiden-Kanaaldijk;Wijk aan Zee-Burgemeester Rothestraat;Badhoevedorp-Sloterweg
Beschrijving data;https://data.rivm.nl/data/luchtmeetnet/readme.pdf;;;Latitude,Longitude;(51.891147,4.48069);(51.893617,4.487528);(51.938472,4.430692);(51.927111,4.461344);(52.13795,4.83819);(51.974489,4.923301);(51.841372,5.857777);(51.838221,5.856938);(53.330425,6.276815);(52.381331,4.845233);(52.389983,4.887811);(52.359714,4.866208);(52.463039,4.601842);(52.493992,4.601986);(52.334003,4.774006)
Accreditatienummer;https://www.rva.nl/alle-geaccrediteerden/;;;StationsGebied;stad;stad;stad;stad;regionaal;regionaal;stad;stad;regionaal;stad;stad;stad;stad;stad;stad
;;;;StationsType;verkeer;achtergrond;verkeer;verkeer;achtergrond;achtergrond;verkeer;achtergrond;achtergrond;verkeer;verkeer;achtergrond;industrie;industrie;achtergrond
;;;;Meetprincipe;Infrarood gasfiltercorrelatie (IR-GFC);Infrarood gasfiltercorrelatie (IR-GFC);Infrarood gasfiltercorrelatie (IR-GFC);Infrarood gasfiltercorrelatie (IR-GFC);Niet-dispersieve infrarood (NDIR);Niet-dispersieve infrarood (NDIR);Niet-dispersieve infrarood (NDIR);Niet-dispersieve infrarood (NDIR);Niet-dispersieve infrarood (NDIR);Infrarood gasfiltercorrelatie (IR-GFC);Infrarood gasfiltercorrelatie (IR-GFC);Infrarood gasfiltercorrelatie (IR-GFC);Infrarood gasfiltercorrelatie (IR-GFC);Infrarood gasfiltercorrelatie (IR-GFC);Infrarood gasfiltercorrelatie (IR-GFC)
;;;;Meetopstelling;Teledyne API T300 gas filter correlation CO analyser;Teledyne API T300 gas filter correlation CO analyser;Thermo model 48w CO analyser;Teledyne API T300 gas filter correlation CO analyser;Thermo model 48w CO analyser              ;Thermo model 48w CO analyser              ;Thermo model 48w CO analyser              ;Thermo model 48w CO analyser              ;Thermo model 48w CO analyser              ;Teledyne API T300 gas filter correlation CO analyser;Teledyne API T300 gas filter correlation CO analyser;Teledyne API T300 gas filter correlation CO analyser;Teledyne API T300 gas filter correlation CO analyser;Teledyne API T300 gas filter correlation CO analyser;Teledyne API T300 gas filter correlation CO analyser
;;;;Accreditatienummer;L520;L520;L520;L520;nvt;nvt;nvt;nvt;nvt;L426;L426;L426;L426;L426;L426
Component;Bep.periode;Eenheid; Begindatumtijd;Einddatumtijd;NL01487;NL01488;NL01491;NL01493;NL10633;NL10644;NL10741;NL10742;NL10934;NL49007;NL49012;NL49014;NL49551;NL49553;NL49561
CO;uur;�g/m�;20120101 00:00;20120101 01:00;280;398;207;323;187.15;;440.94;409.72;242.87;359;457;222;248;356;261
CO;uur;�g/m�;20120101 01:00;20120101 02:00;253;348;198;248;230.73;;387.37;322.19;232.91;377;528;259;229;200;309
CO;uur;�g/m�;20120101 02:00;20120101 03:00;211;318;184;219;175.22;;359.51;290.07;237.13;327;325;201;220;202;265
CO;uur;�g/m�;20120101 03:00;20120101 04:00;185;309;187;211;159.15;;310.22;268.33;235.56;288;279;151;214;182;256
CO;uur;�g/m�;20120101 04:00;20120101 05:00;208;339;214;229;156.38;;278.43;233.61;247.91;254;255;117;213;178;221
CO;uur;�g/m�;20120101 05:00;20120101 06:00;174;331;228;230;161.31;;260.43;206.9;249.08;256;242;113;;;237
CO;uur;�g/m�;20120101 06:00;20120101 07:00;181;308;219;204;168.71;;261.03;201.82;212.33;265;245;95;210;102;238
CO;uur;�g/m�;20120101 07:00;20120101 08:00;169;316;245;210;154.31;;262.34;202.79;198.41;;237;82;210;106;
CO;uur;�g/m�;20120101 08:00;20120101 09:00;181;327;247;184;147.51;;253.49;191.54;180.56;247;216;79;209;106;223
CO;uur;�g/m�;20120101 09:00;20120101 10:00;155;309;235;182;146.62;;275.11;202.68;185.56;251;232;86;213;122;225
CO;uur;�g/m�;20120101 10:00;20120101 11:00;141;300;190;184;151.85;;283.16;220.53;174.68;266;;119;218;124;243
CO;uur;�g/m�;20120101 11:00;20120101 12:00;189;325;220;210;175.22;;295.73;238.48;181.06;316;299;99;233;149;281
CO;uur;�g/m�;20120101 12:00;20120101 13:00;228;348;260;285;169.99;;349.85;257.19;171.16;295;290;89;244;151;246
CO;uur;�g/m�;20120101 13:00;20120101 14:00;211;344;262;276;185.18;;357.6;283.04;195.17;293;275;107;258;181;259
CO;uur;�g/m�;20120101 14:00;20120101 15:00;270;340;269;324;181.04;;391.2;315.38;169.29;300;287;112;262;176;267
CO;uur;�g/m�;20120101 15:00;20120101 16:00;524;368;308;400;185.57;;385.66;289.85;172.43;387;378;269;277;214;308
CO;uur;�g/m�;20120101 16:00;20120101 17:00;527;411;332;466;199.57;;523.07;371.51;177.13;443;465;295;286;260;323
CO;uur;�g/m�;20120101 17:00;20120101 18:00;469;357;278;328;189.02;;443.1;309.76;176.84;599;505;314;302;1044;390
CO;uur;�g/m�;20120101 18:00;20120101 19:00;386;338;258;269;167.13;;423.08;279.9;195.07;407;375;272;321;938;307
CO;uur;�g/m�;20120101 19:00;20120101 20:00;308;330;244;250;171.27;;377.61;246.81;200.07;382;351;247;297;1759;297
CO;uur;�g/m�;20120101 20:00;20120101 21:00;159;287;246;202;164.77;;377.41;240.86;207.91;349;298;239;275;822;283
CO;uur;�g/m�;20120101 21:00;20120101 22:00;139;303;253;200;155.69;;367.96;221.07;199.29;298;287;239;241;136;246
CO;uur;�g/m�;20120101 22:00;20120101 23:00;146;285;210;188;152.05;;347.94;204.74;183.6;289;244;243;226;129;244
CO;uur;�g/m�;20120101 23:00;20120102 00:00;156;282;204;183;143.7;;377.01;198;184.16;270;221;225;218;123;228
CO;uur;�g/m�;20120102 00:00;20120102 01:00;83;262;204;165;138.39;;199.88;168.84;150.89;252;212;208;210;116;232
CO;uur;�g/m�;20120102 01:00;20120102 02:00;83;258;201;150;140.9;;179.15;159.82;138;244;203;212;229;125;234
CO;uur;�g/m�;20120102 02:00;20120102 03:00;87;259;192;146;136.96;;203.49;171.01;151.2;242;202;198;219;125;232
CO;uur;�g/m�;20120102 03:00;20120102 04:00;118;299;182;174;150.96;;224.52;219.77;149.34;246;211;215;234;136;236
CO;uur;�g/m�;20120102 04:00;20120102 05:00;97;275;201;164;145.74;;224.52;224.72;161.65;271;228;234;253;154;244
CO;uur;�g/m�;20120102 05:00;20120102 06:00;185;287;202;169;148.2;;214.56;195.87;177.09;285;252;245;;153;258
CO;uur;�g/m�;20120102 06:00;20120102 07:00;307;318;260;216;146.23;;310.42;199.96;150.41;306;275;254;265;137;264
CO;uur;�g/m�;20120102 07:00;20120102 08:00;307;332;324;293;152.14;;476.8;240.86;163.12;;339;281;279;140;
CO;uur;�g/m�;20120102 08:00;20120102 09:00;317;403;388;350;179.95;;506.37;267.01;167.32;404;367;310;273;147;301
CO;uur;�g/m�;20120102 09:00;20120102 10:00;270;370;315;289;200.26;;369.87;250.55;156.77;353;406;314;263;140;300
CO;uur;�g/m�;20120102 10:00;20120102 11:00;171;319;300;236;223.14;;404.77;268.41;148.26;373;344;316;322;166;341
CO;uur;�g/m�;20120102 11:00;20120102 12:00;233;304;277;279;170.19;;416.44;304.46;165.56;357;366;314;299;137;261
CO;uur;�g/m�;20120102 12:00;20120102 13:00;268;323;274;239;155.69;;455.17;271.21;157.94;284;304;251;294;128;270
CO;uur;�g/m�;20120102 13:00;20120102 14:00;238;295;253;215;180.84;;469.56;284.78;139.37;277;285;254;271;146;237
CO;uur;�g/m�;20120102 14:00;20120102 15:00;257;272;195;206;172.75;;519.55;300.27;149.73;276;306;274;261;139;229
CO;uur;�g/m�;20120102 15:00;20120102 16:00;245;267;218;242;172.56;;450.95;295.96;142.89;269;307;266;272;131;227
CO;uur;�g/m�;20120102 16:00;20120102 17:00;271;280;245;214;175.32;;456.18;235.69;144.16;287;308;278;274;129;255
CO;uur;�g/m�;20120102 17:00;20120102 18:00;275;297;281;329;169.01;;464.43;214.17;129.89;286;336;286;264;125;238
CO;uur;�g/m�;20120102 18:00;20120102 19:00;233;300;407;269;185.87;;467.14;228.48;118.85;285;310;292;242;126;262
CO;uur;�g/m�;20120102 19:00;20120102 20:00;323;314;254;319;195.43;;401.56;244.2;104.28;293;290;319;257;134;236
CO;uur;�g/m�;20120102 20:00;20120102 21:00;302;311;272;366;218.21;;391.7;251.3;91.09;268;305;327;244;133;236
CO;uur;�g/m�;20120102 21:00;20120102 22:00;270;298;216;321;208.25;;405.48;336.32;88.55;311;360;350;247;127;282
CO;uur;�g/m�;20120102 22:00;20120102 23:00;293;330;236;334;211.11;;371.78;242.15;97.25;376;389;356;239;119;305
CO;uur;�g/m�;20120102 23:00;20120103 00:00;241;296;212;284;222.71;;379.83;246.96;105.68;322;336;369;241;119;286
CO;uur;�g/m�;20120103 00:00;20120103 01:00;214;279;172;249;207.41;;257.08;203.98;189.83;306;335;363;246;127;287
CO;uur;�g/m�;20120103 01:00;20120103 02:00;173;262;157;226;192.57;;246.88;194.15;179.44;288;313;362;284;314;266
CO;uur;�g/m�;20120103 02:00;20120103 03:00;196;270;145;208;205.34;;208.72;160.36;174.26;260;271;338;267;225;253
CO;uur;�g/m�;20120103 03:00;20120103 04:00;260;326;154;241;225.21;;212.73;164.23;179.54;245;241;319;261;723;233
CO;uur;�g/m�;20120103 04:00;20120103 05:00;222;292;180;251;202.83;;194.3;155.52;169.96;259;257;335;255;927;251
CO;uur;�g/m�;20120103 05:00;20120103 06:00;274;275;182;258;195.53;;197.3;149.27;138.39;280;275;339;270;1951;254
CO;uur;�g/m�;20120103 06:00;20120103 07:00;348;265;179;265;170.98;;255.79;176.18;133.31;317;292;326;;2126;266
CO;uur;�g/m�;20120103 07:00;20120103 08:00;330;270;196;245;175.41;;341.42;189.74;127.64;330;325;329;272;2003;290
CO;uur;�g/m�;20120103 08:00;20120103 09:00;399;276;202;280;176.8;;262.4;203.95;144.94;;337;347;264;1097;
CO;uur;�g/m�;20120103 09:00;20120103 10:00;259;268;186;262;170.78;;234.86;190.39;158.92;308;317;327;266;899;264
CO;uur;�g/m�;20120103 10:00;20120103 11:00;258;287;209;267;175.02;;214.63;185.43;151.78;279;311;315;257;383;281
CO;uur;�g/m�;20120103 11:00;20120103 12:00;282;306;192;264;192.67;;206.92;195.12;134.87;288;;312;261;344;263
CO;uur;�g/m�;20120103 12:00;20120103 13:00;239;297;255;270;195.83;;221.94;198.35;146.8;289;307;305;270;380;274
CO;uur;�g/m�;20120103 13:00;20120103 14:00;291;306;223;276;198.69;;222.74;;157.26;310;314;299;279;485;298
CO;uur;�g/m�;20120103 14:00;20120103 15:00;322;324;263;280;201.05;;224.14;;177.88;329;322;305;272;342;295
CO;uur;�g/m�;20120103 15:00;20120103 16:00;424;337;220;274;191.88;;228.05;;187.85;316;341;295;263;164;284
CO;uur;�g/m�;20120103 16:00;20120103 17:00;376;323;377;270;184.29;;275.62;179.97;198.3;332;323;301;257;154;296
CO;uur;�g/m�;20120103 17:00;20120103 18:00;346;314;306;251;173.94;;349.73;180.62;193.71;288;312;257;249;149;244
CO;uur;�g/m�;20120103 18:00;20120103 19:00;299;271;249;207;170.88;;306.77;163;195.47;253;255;251;239;168;233
CO;uur;�g/m�;20120103 19:00;20120103 20:00;233;256;161;228;165.55;;307.57;167.72;194;243;254;254;241;166;234
CO;uur;�g/m�;20120103 20:00;20120103 21:00;244;253;138;186;164.27;;268.01;147.74;191.76;221;207;223;206;154;209
CO;uur;�g/m�;20120103 21:00;20120103 22:00;234;245;127;200;157.47;;259.4;121.09;191.07;212;197;219;208;144;212
CO;uur;�g/m�;20120103 22:00;20120103 23:00;205;243;124;196;161.61;;283.93;124.42;178.27;226;212;219;217;139;211
CO;uur;�g/m�;20120103 23:00;20120104 00:00;166;234;151;244;166.44;;329.57;130.08;189.08;225;191;213;217;130;211
CO;uur;�g/m�;20120104 00:00;20120104 01:00;153;226;194;197;163.57;;213.03;158.64;150.28;214;191;216;214;123;218
CO;uur;�g/m�;20120104 01:00;20120104 02:00;125;215;168;175;162.89;;210.52;154.19;157.84;200;198;217;217;124;214
CO;uur;�g/m�;20120104 02:00;20120104 03:00;106;211;149;181;171.27;;192.4;154.4;167.71;209;189;212;224;126;218
CO;uur;�g/m�;20120104 03:00;20120104 04:00;122;220;97;167;165.16;;218.73;214.68;162.34;215;188;210;225;126;218
CO;uur;�g/m�;20120104 04:00;20120104 05:00;120;212;86;152;162.89;;208.02;216.72;154.42;216;193;214;228;125;221
CO;uur;�g/m�;20120104 05:00;20120104 06:00;133;212;78;163;161.22;;180.68;167.83;152.37;210;203;217;241;136;217
CO;uur;�g/m�;20120104 06:00;20120104 07:00;217;216;115;189;150.57;;176.97;152.04;142.89;226;222;237;;124;222
CO;uur;�g/m�;20120104 07:00;20120104 08:00;239;224;150;253;148.1;;305.87;198.56;127.45;229;244;241;244;;222
CO;uur;�g/m�;20120104 08:00;20120104 09:00;239;240;157;266;155;;339.42;216.07;123.83;;233;267;236;165;
CO;uur;�g/m�;20120104 09:00;20120104 10:00;277;261;162;229;154.71;;275.22;204.15;123.34;247;236;261;217;166;202
CO;uur;�g/m�;20120104 10:00;20120104 11:00;309;232;157;203;155.4;;212.73;185.45;123.83;265;246;253;237;168;217
CO;uur;�g/m�;20120104 11:00;20120104 12:00;321;237;146;206;167.03;;190.29;188.89;138;263;235;241;236;170;210
CO;uur;�g/m�;20120104 12:00;20120104 13:00;326;245;180;218;177.88;;189.59;199.42;156.08;273;235;244;252;;214
CO;uur;�g/m�;20120104 13:00;20120104 14:00;331;260;144;201;191.59;;251.08;212.42;162.92;291;254;243;254;202;209
CO;uur;�g/m�;20120104 14:00;20120104 15:00;355;273;159;217;198.98;;248.78;178.58;176.02;295;294;226;265;197;224
CO;uur;�g/m�;20120104 15:00;20120104 16:00;377;292;192;315;209.14;;347.93;203.93;198.5;290;288;228;261;192;215
CO;uur;�g/m�;20120104 16:00;20120104 17:00;378;305;214;309;217.62;;362.35;233.48;198.21;286;293;227;260;194;242
CO;uur;�g/m�;20120104 17:00;20120104 18:00;;292;255;294;207.26;;382.49;238.42;186.28;303;320;233;260;201;239
CO;uur;�g/m�;20120104 18:00;20120104 19:00;;276;261;279;197.9;;280.43;239.71;190.78;304;301;189;261;197;237
CO;uur;�g/m�;20120104 19:00;20120104 20:00;;294;202;256;188.33;;311.88;266.79;181.01;299;308;198;247;191;241
CO;uur;�g/m�;20120104 20:00;20120104 21:00;;269;184;263;192.47;;207.32;325.67;176.41;281;248;176;242;188;233
CO;uur;�g/m�;20120104 21:00;20120104 22:00;;274;199;226;189.51;;147.23;234.02;186.28;282;246;178;243;194;224
CO;uur;�g/m�;20120104 22:00;20120104 23:00;;258;185;220;197.01;;130.9;210.06;177.88;272;236;167;247;197;227
CO;uur;�g/m�;20120104 23:00;20120105 00:00;;259;187;215;196.81;;137.01;196.55;194.17;266;226;158;245;195;227
CO;uur;�g/m�;20120105 00:00;20120105 01:00;;250;174;203;159.83;;209.26;167.49;164.88;253;217;150;246;195;228
CO;uur;�g/m�;20120105 01:00;20120105 02:00;;242;174;207;164.47;;211.42;194.91;161.85;238;217;150;244;194;228
CO;uur;�g/m�;20120105 02:00;20120105 03:00;;246;164;213;176.95;;186.89;174.38;179.83;241;221;142;249;192;232
CO;uur;�g/m�;20120105 03:00;20120105 04:00;;250;158;214;174.3;;183.98;169.55;166.44;244;213;138;242;185;229
CO;uur;�g/m�;20120105 04:00;20120105 05:00;;252;157;215;176.07;;178.77;171.48;157.74;253;206;135;238;184;228
CO;uur;�g/m�;20120105 05:00;20120105 06:00;;257;167;204;174.1;;194.1;171.7;144.45;244;216;135;238;188;224
CO;uur;�g/m�;20120105 06:00;20120105 07:00;;274;204;233;151.2;;206.82;166.11;141.32;250;218;137;231;184;213
CO;uur;�g/m�;20120105 07:00;20120105 08:00;;264;220;276;146.08;;305.97;173.95;152.76;263;238;152;;;224
CO;uur;�g/m�;20120105 08:00;20120105 09:00;;251;228;285;149.92;;338.42;196.41;143.18;292;269;162;232;133;232
CO;uur;�g/m�;20120105 09:00;20120105 10:00;;252;221;274;159.95;;342.92;205.11;149.14;;251;151;226;139;
CO;uur;�g/m�;20120105 10:00;20120105 11:00;;242;213;254;159.55;;301.46;186.96;145.62;;235;146;231;126;219
CO;uur;�g/m�;20120105 11:00;20120105 12:00;292;245;183;272;166.24;;299.86;181.8;136.54;149;258;147;225;122;236
CO;uur;�g/m�;20120105 12:00;20120105 13:00;309;245;188;269;174.2;;323.49;183.09;125.69;189;;157;247;148;231
CO;uur;�g/m�;20120105 13:00;20120105 14:00;367;251;190;264;177.84;;333.81;183.3;130.18;198;266;167;276;131;229
CO;uur;�g/m�;20120105 14:00;20120105 15:00;332;248;200;273;145.1;;391.1;189.1;126.86;196;268;164;251;118;234
CO;uur;�g/m�;20120105 15:00;20120105 16:00;322;243;185;277;145.99;;340.82;206.4;136.83;229;232;164;266;113;233
CO;uur;�g/m�;20120105 16:00;20120105 17:00;365;258;202;257;151.59;;416.44;210.7;128.62;235;292;286;247;111;280
CO;uur;�g/m�;20120105 17:00;20120105 18:00;282;266;297;286;140.78;;423.45;211.56;123.15;279;228;240;254;103;282
CO;uur;�g/m�;20120105 18:00;20120105 19:00;225;246;194;292;119.05;;381.88;195.44;124.22;233;196;223;231;100;323
CO;uur;�g/m�;20120105 19:00;20120105 20:00;183;230;173;267;124.95;;300.56;185.67;118.65;209;182;264;220;100;306
CO;uur;�g/m�;20120105 20:00;20120105 21:00;157;219;158;237;130.65;;293.25;176.1;125.88;187;187;249;217;100;245
CO;uur;�g/m�;20120105 21:00;20120105 22:00;159;226;182;237;124.06;;325.2;159.02;129.01;188;192;270;226;101;229
CO;uur;�g/m�;20120105 22:00;20120105 23:00;133;214;150;207;126.52;;302.26;157.52;132.33;189;183;265;336;101;252
CO;uur;�g/m�;20120105 23:00;20120106 00:00;134;214;155;192;140.25;;258.39;153.15;126.27;194;194;269;367;104;286
CO;uur;�g/m�;20120106 00:00;20120106 01:00;125;215;141;173;153.82;;210.09;142.22;134.02;189;194;259;235;106;251
CO;uur;�g/m�;20120106 01:00;20120106 02:00;123;228;136;193;157.49;;175.57;149.7;130.18;202;191;257;246;112;283
CO;uur;�g/m�;20120106 02:00;20120106 03:00;124;230;149;180;171.25;;186.59;151.1;133.51;203;188;251;236;109;278
CO;uur;�g/m�;20120106 03:00;20120106 04:00;115;231;145;181;171.55;;168.76;144.75;134.58;204;190;235;248;106;266
CO;uur;�g/m�;20120106 04:00;20120106 05:00;114;230;160;195;167.12;;162.05;142.49;124.61;210;185;217;238;100;319
CO;uur;�g/m�;20120106 05:00;20120106 06:00;131;228;171;202;163.98;;145.22;137.76;132.53;217;184;212;247;104;316
CO;uur;�g/m�;20120106 06:00;20120106 07:00;163;245;188;224;163.29;;183.88;153.69;123.54;237;197;229;259;107;308
CO;uur;�g/m�;20120106 07:00;20120106 08:00;242;254;228;286;165.06;;205.52;212.88;134.68;271;206;265;;107;300
CO;uur;�g/m�;20120106 08:00;20120106 09:00;201;265;229;286;169.19;;236.66;205.67;128.62;300;216;349;391;;252
CO;uur;�g/m�;20120106 09:00;20120106 10:00;208;274;226;276;180;;296.25;223.86;130.57;;214;337;437;153;
CO;uur;�g/m�;20120106 10:00;20120106 11:00;252;287;310;293;183.54;;281.73;213.31;135.75;297;223;345;333;165;252
CO;uur;�g/m�;20120106 11:00;20120106 12:00;226;290;304;318;193.47;;225.45;245.92;141.52;298;224;341;266;158;253
CO;uur;�g/m�;20120106 12:00;20120106 13:00;313;289;270;284;213.72;;251.69;213.95;145.92;329;220;322;243;158;320
CO;uur;�g/m�;20120106 13:00;20120106 14:00;335;293;307;326;220.21;;341.42;223.53;154.42;323;;318;266;164;279
CO;uur;�g/m�;20120106 14:00;20120106 15:00;324;299;266;296;177.84;;259.2;218.15;176.9;304;;332;257;166;274
CO;uur;�g/m�;20120106 15:00;20120106 16:00;;267;360;329;160.34;;327.4;227.95;170.16;280;;349;264;169;258
CO;uur;�g/m�;20120106 16:00;20120106 17:00;668;293;322;373;176.36;;442.78;230.42;151;333;;384;247;183;298
CO;uur;�g/m�;20120106 17:00;20120106 18:00;703;285;472;416;188.16;;580.79;348.91;140.25;384;;372;258;207;307
CO;uur;�g/m�;20120106 18:00;20120106 19:00;579;312;377;396;191.8;;487.35;308.02;134.09;419;;394;224;210;248
CO;uur;�g/m�;20120106 19:00;20120106 20:00;452;312;306;380;205.86;;374.27;291.87;141.23;355;;367;237;214;267
CO;uur;�g/m�;20120106 20:00;20120106 21:00;303;318;274;397;231.81;;365.36;310.6;139.17;335;;206;216;235;273
CO;uur;�g/m�;20120106 21:00;20120106 22:00;326;326;285;357;235.25;;318.49;279.71;136.83;332;;228;230;210;271
CO;uur;�g/m�;20120106 22:00;20120106 23:00;295;357;273;341;235.74;;291.65;264;149.05;357;;228;243;210;276
CO;uur;�g/m�;20120106 23:00;20120107 00:00;337;408;342;379;243.8;;363.76;359.6;160.94;340;;196;258;208;277
CO;uur;�g/m�;20120107 00:00;20120107 01:00;298;376;401;373;336.44;;319.24;295.39;167.18;359;;229;249;210;329
CO;uur;�g/m�;20120107 01:00;20120107 02:00;266;358;296;355;332.28;;289.26;277.24;170.64;358;;256;268;225;341
CO;uur;�g/m�;20120107 02:00;20120107 03:00;215;326;260;315;307.01;;250.25;266.47;214.72;333;;218;271;223;288
CO;uur;�g/m�;20120107 03:00;20120107 04:00;;;;;244.79;;232.39;262.82;220.58;314;;170;261;210;275
CO;uur;�g/m�;20120107 04:00;20120107 05:00;157;277;189;234;210.08;;206.42;255.5;224.1;307;;163;249;199;263
CO;uur;�g/m�;20120107 05:00;20120107 06:00;172;278;186;202;189.44;;198.79;251.62;208.86;312;;156;240;194;251
CO;uur;�g/m�;20120107 06:00;20120107 07:00;193;292;185;187;172.63;;211.23;251.62;212.47;302;;141;225;179;242
CO;uur;�g/m�;20120107 07:00;20120107 08:00;198;270;176;182;162.7;;201.9;239.89;198.5;292;;134;211;171;216
CO;uur;�g/m�;20120107 08:00;20120107 09:00;202;258;176;216;160.04;;203;189.85;191.95;267;;115;;;216
CO;uur;�g/m�;20120107 09:00;20120107 10:00;265;273;229;250;164.86;;218.15;196.52;165.17;272;;131;237;120;226
CO;uur;�g/m�;20120107 10:00;20120107 11:00;312;277;245;295;169.38;;291.57;202.33;159.31;;;148;251;137;
CO;uur;�g/m�;20120107 11:00;20120107 12:00;330;275;222;261;170.47;;310.22;218.48;154.23;267;;142;259;134;229
CO;uur;�g/m�;20120107 12:00;20120107 13:00;386;276;207;277;176.66;;323.46;237.09;157.55;266;;151;252;142;232
CO;uur;�g/m�;20120107 13:00;20120107 14:00;420;279;219;304;185.01;;357.56;220.41;166.05;261;;152;285;151;236
CO;uur;�g/m�;20120107 14:00;20120107 15:00;438;263;219;293;178.82;;397.18;237.85;156.08;270;263;151;277;137;250
CO;uur;�g/m�;20120107 15:00;20120107 16:00;392;262;219;298;183.83;;349.44;234.94;153.35;370;218;185;246;123;256
CO;uur;�g/m�;20120107 16:00;20120107 17:00;451;267;232;322;174.3;;394.67;217.83;146.99;318;214;235;253;121;245
CO;uur;�g/m�;20120107 17:00;20120107 18:00;433;266;238;289;173.91;;443.62;242.26;139.08;273;227;271;231;148;255
CO;uur;�g/m�;20120107 18:00;20120107 19:00;452;272;226;297;183.34;;355.76;233.76;126.47;310;229;218;252;134;239
CO;uur;�g/m�;20120107 19:00;20120107 20:00;449;279;247;307;180.39;;366.59;228.59;127.93;293;315;171;239;144;246
CO;uur;�g/m�;20120107 20:00;20120107 21:00;430;265;242;346;201.82;;400.39;269.92;127.45;279;314;169;250;162;260
CO;uur;�g/m�;20120107 21:00;20120107 22:00;347;262;223;307;193.57;;365.89;277.45;127.25;284;241;256;250;145;254
CO;uur;�g/m�;20120107 22:00;20120107 23:00;;;;;199.56;;384.85;284.34;132.43;293;235;266;247;149;262
CO;uur;�g/m�;20120107 23:00;20120108 00:00;389;257;229;263;200.02;;461.77;282.26;133.57;295;229;259;239;151;245
CO;uur;�g/m�;20120108 00:00;20120108 01:00;270;250;369;237;153.48;;276.11;238.92;176.5;295;223;245;242;150;238
CO;uur;�g/m�;20120108 01:00;20120108 02:00;243;248;214;209;159.85;;267.4;227.08;172.31;271;219;241;239;129;227
CO;uur;�g/m�;20120108 02:00;20120108 03:00;214;250;165;216;159.65;;281.04;193.61;175.04;256;250;217;246;128;227
CO;uur;�g/m�;20120108 03:00;20120108 04:00;;258;;;154.64;;242.42;205.78;179.25;297;238;209;243;130;231
CO;uur;�g/m�;20120108 04:00;20120108 05:00;183;263;171;195;146.97;;249.94;207.93;180.42;356;200;248;239;128;227
CO;uur;�g/m�;20120108 05:00;20120108 06:00;181;251;159;192;153.36;;202.4;208.04;173.28;355;206;247;245;121;227
CO;uur;�g/m�;20120108 06:00;20120108 07:00;173;251;154;211;140.68;;136.51;198.24;178.07;287;198;342;235;119;222
CO;uur;�g/m�;20120108 07:00;20120108 08:00;171;261;190;205;146.18;;126.48;209.54;171.33;261;196;288;228;119;231
CO;uur;�g/m�;20120108 08:00;20120108 09:00;181;266;175;218;134.09;;153.76;201.04;175.82;243;212;228;;117;221
CO;uur;�g/m�;20120108 09:00;20120108 10:00;198;292;251;263;152.87;;167.9;199.64;166.34;244;216;242;234;;227
CO;uur;�g/m�;20120108 10:00;20120108 11:00;229;281;211;285;145.3;;265.79;225.25;168.01;;213;263;234;177;
CO;uur;�g/m�;20120108 11:00;20120108 12:00;261;282;297;249;148.44;;266.49;243.66;181.88;225;209;275;244;156;225
CO;uur;�g/m�;20120108 12:00;20120108 13:00;293;286;247;327;146.38;;339.41;246.03;188.14;247;221;299;258;164;237
CO;uur;�g/m�;20120108 13:00;20120108 14:00;263;256;204;329;146.67;;337;269.27;195.08;254;222;270;257;168;237
CO;uur;�g/m�;20120108 14:00;20120108 15:00;382;262;212;316;144.71;;286.05;266.69;208.08;285;232;264;265;155;255
CO;uur;�g/m�;20120108 15:00;20120108 16:00;359;272;219;372;152.28;;348.04;242.26;214.14;314;226;260;264;155;270
CO;uur;�g/m�;20120108 16:00;20120108 17:00;414;295;258;387;148.64;;281.14;257.76;215.02;309;238;289;272;156;254
CO;uur;�g/m�;20120108 17:00;20120108 18:00;486;313;242;560;149.92;;323.76;256.25;190.39;315;251;318;259;158;242
CO;uur;�g/m�;20120108 18:00;20120108 19:00;471;312;285;521;158.67;;272.11;249.04;172.99;314;252;320;250;161;234
CO;uur;�g/m�;20120108 19:00;20120108 20:00;733;319;312;572;157.1;;386.65;313.61;177.29;337;242;337;249;168;282